FENGYUN 1C DEB, 41823

Orbit data source: Space-Track

FENGYUN 1C DEB, 41823 is space debris in SSO originally from a launch on Mon, 10 May 1999 UTC launched from the Taiyaun Space Center, China (TSC). Fengyun 1C debris stems from the Chinese weather satellite Fengyun-1C, which was intentionally destroyed by a Chinese anti-satellite missile in 2007. This event dramatically increased the amount of space debris, with thousands of trackable fragments posing hazards to satellites and human spaceflight. The Fengyun 1C debris cloud has become a focal point in discussions about space sustainability and the need for international regulations to prevent the creation of new debris.

Loading next visibility...
Identifier
41823, 1999-025EYA
Orbit
SSO
Country
Flag of CNCN / PRC
Related business
Manufacturer
Unknown
Mission
Spacecraft
Bus & Motor
Unknown
Mass
Unknown
Launch date (UTC)
1999-05-10 (27 years ago)
Launch vehicle
Unknown
Launch site
Taiyaun Space Center, China (TSC)
Object type
Payload
Rocket body
Debris
Shape & HBR
Unknown shape, 0.1 m
Radar Cross Section
Small (<0.1 m²)

Expand to show TLE details & history
Last TLE update: 16 hours ago

TLE from 16 hours ago
0 FENGYUN 1C DEB
1 41823U 99025EYA 26107.17046212  .00001786  00000-0  78021-3 0  9995
2 41823  98.7050 174.3905 0053694 223.0601 136.6372 14.24345971491438
Epoch: 2026-04-17T04:05Z
TLE epoch observation values (Epoch: 2026-04-17T04:05:27.927Z)
Latitude
0.00008°
Longitude
-92.28337°
Altitude
841.778 km
Speed
7.417 km/s
True Right ascension
11h 37m 33s
True Declination
0° 00' 00"
Sunlit
Object was in full shadow at epoch
Visualization orbit readout
Latitude
Unknown
Longitude
Unknown
Altitude
Unknown
Speed
Unknown
Apparent Right ascension
Unknown
Apparent Declination
Unknown
Sunlit
N/A
Visualization observer readout
Local Sidereal Time
02:23:09
Azimuth
Unknown
Elevation
Unknown
Doppler factor
Unknown
Orbital elements
Apogee altitude
846.429 km
Perigee altitude
769.26 km
Semi-major axis
7,185.982 km
Eccentricity
0.00537
Inclination
98.705°
RAAN
174.3905°
Arg. of periapsis
223.0601°
True anomaly
137.05761°
Mean anomaly
136.6372°
Eccentric anomaly
136.84761°
Mean motion
3.56298 °/min
Orbital period
101.04 mins
BSTAR
0.00078021
Loading maneuver chart data...
Computing Atmospheric mass density...
Loading historical data...
Loading historical data...
Loading historical data...
Loading historical data...
Loading historical data...
Loading historical data...
Loading historical data...

Documentation

Showing up to 5 results
|